"Sample Date","Sample Time","Sample Value","Units","Flow Rate","Sample Interval","Number Channels","Micron Size 0","Counts/Channel 0","Micron Size 1","Counts/Channel 1","Micron Size 2","Counts/Channel 2","Micron Size 3","Counts/Channel 3","Micron Size 4","Counts/Channel 4","Micron Size 5","Counts/Channel 5","Micron Size 6","Counts/Channel 6","Micron Size 7","Counts/Channel 7","Micron Size 8","Counts/Channel 8","Micron Size 9","Counts/Channel 9","Micron Size 10","Counts/Channel 10","Micron Size 11","Counts/Channel 11","Micron Size 12","Counts/Channel 12","Micron Size 13","Counts/Channel 13","Micron Size 14","Counts/Channel 14","Micron Size 15","Counts/Channel 15","Micron Size 16","Counts/Channel 16","Micron Size 17","Counts/Channel 17","Micron Size 18","Counts/Channel 18","Micron Size 19","Counts/Channel 19","Micron Size 20","Counts/Channel 20","Micron Size 21","Counts/Channel 21","Micron Size 22","Counts/Channel 22","Micron Size 23","Counts/Channel 23","Micron Size 24","Counts/Channel 24","Micron Size 25","Counts/Channel 25","Micron Size 26","Counts/Channel 26","Micron Size 27","Counts/Channel 27","Micron Size 28","Counts/Channel 28","Micron Size 29","Counts/Channel 29","Micron Size 30","Counts/Channel 30","Micron Size 31","Counts/Channel 31"
"03/06/08","11:00:02",52382.000,"cc",28389.107,6.00,6,0.100,42928.000,0.200,6235.000,0.300,1375.000,0.500,1385.000,1.000,459.000,5.000,0
"03/06/08","11:00:08",52682.000,"cc",28364.844,6.00,6,0.100,43279.000,0.200,6096.000,0.300,1460.000,0.500,1469.000,1.000,378.000,5.000,0
"03/06/08","11:00:14",52416.000,"cc",28341.762,6.00,6,0.100,43013.000,0.200,6163.000,0.300,1452.000,0.500,1347.000,1.000,441.000,5.000,0
"03/06/08","11:00:20",52637.000,"cc",28194.061,6.00,6,0.100,43134.000,0.200,6217.000,0.300,1435.000,0.500,1407.000,1.000,444.000,5.000,0
"03/06/08","11:00:26",52454.000,"cc",28292.543,6.00,6,0.100,43092.000,0.200,6196.000,0.300,1399.000,0.500,1343.000,1.000,424.000,5.000,0
"03/06/08","11:00:32",52375.000,"cc",28440.557,6.00,6,0.100,42937.000,0.200,6139.000,0.300,1479.000,0.500,1368.000,1.000,452.000,5.000,0
"03/06/08","11:00:38",52565.000,"cc",28325.670,6.00,6,0.100,43111.000,0.200,6144.000,0.300,1398.000,0.500,1426.000,1.000,486.000,5.000,0
"03/06/08","11:00:44",52641.000,"cc",28259.633,6.00,6,0.100,43042.000,0.200,6166.000,0.300,1429.000,0.500,1545.000,1.000,459.000,5.000,0
"03/06/08","11:00:50",52309.000,"cc",28274.057,6.00,6,0.100,42687.000,0.200,6294.000,0.300,1500.000,0.500,1382.000,1.000,446.000,5.000,0
"03/06/08","11:00:56",52715.000,"cc",28299.498,6.00,6,0.100,43009.000,0.200,6339.000,0.300,1455.000,0.500,1479.000,1.000,433.000,5.000,0
"03/06/08","11:01:02",52749.000,"cc",28341.580,6.00,6,0.100,43355.000,0.200,6137.000,0.300,1437.000,0.500,1391.000,1.000,429.000,5.000,0
"03/06/08","11:01:08",52846.000,"cc",28231.631,6.00,6,0.100,43218.000,0.200,6303.000,0.300,1462.000,0.500,1413.000,1.000,450.000,5.000,0
"03/06/08","11:01:14",52416.000,"cc",28338.846,6.00,6,0.100,42991.000,0.200,6163.000,0.300,1416.000,0.500,1415.000,1.000,431.000,5.000,0
"03/06/08","11:01:20",52716.000,"cc",28345.328,6.00,6,0.100,43275.000,0.200,6110.000,0.300,1449.000,0.500,1487.000,1.000,395.000,5.000,0
"03/06/08","11:01:26",52778.000,"cc",28304.725,6.00,6,0.100,43374.000,0.200,6082.000,0.300,1508.000,0.500,1410.000,1.000,404.000,5.000,0
"03/06/08","11:01:32",52822.000,"cc",28333.727,6.00,6,0.100,43060.000,0.200,6330.000,0.300,1568.000,0.500,1446.000,1.000,418.000,5.000,0
"03/06/08","11:01:38",52520.000,"cc",28332.690,6.00,6,0.100,42973.000,0.200,6266.000,0.300,1425.000,0.500,1423.000,1.000,433.000,5.000,0
"03/06/08","11:01:44",52248.000,"cc",28315.834,6.00,6,0.100,42682.000,0.200,6137.000,0.300,1512.000,0.500,1463.000,1.000,454.000,5.000,0
"03/06/08","11:01:50",52445.000,"cc",28333.434,6.00,6,0.100,42959.000,0.200,6138.000,0.300,1462.000,0.500,1456.000,1.000,430.000,5.000,0
"03/06/08","11:01:56",52518.000,"cc",28211.293,6.00,6,0.100,43064.000,0.200,6249.000,0.300,1488.000,0.500,1322.000,1.000,395.000,5.000,0
"03/06/08","11:02:02",53093.000,"cc",28454.350,6.00,6,0.100,43479.000,0.200,6246.000,0.300,1479.000,0.500,1440.000,1.000,449.000,5.000,0
"03/06/08","11:02:08",52753.000,"cc",28328.072,6.00,6,0.100,43152.000,0.200,6363.000,0.300,1424.000,0.500,1381.000,1.000,433.000,5.000,0
"03/06/08","11:02:14",52820.000,"cc",28279.447,6.00,6,0.100,43231.000,0.200,6389.000,0.300,1420.000,0.500,1392.000,1.000,388.000,5.000,0
"03/06/08","11:02:20",52958.000,"cc",28360.805,6.00,6,0.100,43444.000,0.200,6214.000,0.300,1462.000,0.500,1421.000,1.000,417.000,5.000,0
"03/06/08","11:02:26",52430.000,"cc",28366.494,6.00,6,0.100,43084.000,0.200,6074.000,0.300,1473.000,0.500,1385.000,1.000,414.000,5.000,0
"03/06/08","11:02:32",52462.000,"cc",28268.754,6.00,6,0.100,43057.000,0.200,6116.000,0.300,1409.000,0.500,1460.000,1.000,420.000,5.000,0
"03/06/08","11:02:38",52411.000,"cc",28211.426,6.00,6,0.100,43041.000,0.200,6143.000,0.300,1411.000,0.500,1398.000,1.000,418.000,5.000,0
"03/06/08","11:02:44",52908.000,"cc",28351.514,6.00,6,0.100,43295.000,0.200,6256.000,0.300,1455.000,0.500,1452.000,1.000,450.000,5.000,0
"03/06/08","11:02:50",52461.000,"cc",28369.252,6.00,6,0.100,43007.000,0.200,6192.000,0.300,1460.000,0.500,1390.000,1.000,412.000,5.000,0
"03/06/08","11:02:56",52428.000,"cc",28341.141,6.00,6,0.100,43088.000,0.200,6125.000,0.300,1481.000,0.500,1338.000,1.000,396.000,5.000,0
"03/06/08","11:03:02",52604.000,"cc",28258.994,6.00,6,0.100,43255.000,0.200,6190.000,0.300,1417.000,0.500,1349.000,1.000,393.000,5.000,0
"03/06/08","11:03:08",52419.000,"cc",28266.283,6.00,6,0.100,42963.000,0.200,6197.000,0.300,1451.000,0.500,1398.000,1.000,410.000,5.000,0
"03/06/08","11:03:14",52413.000,"cc",28375.770,6.00,6,0.100,43012.000,0.200,6188.000,0.300,1478.000,0.500,1363.000,1.000,372.000,5.000,0
"03/06/08","11:03:20",52541.000,"cc",28225.361,6.00,6,0.100,43204.000,0.200,6108.000,0.300,1420.000,0.500,1395.000,1.000,414.000,5.000,0
"03/06/08","11:03:26",52955.000,"cc",28381.660,6.00,6,0.100,43491.000,0.200,6168.000,0.300,1473.000,0.500,1417.000,1.000,406.000,5.000,0
"03/06/08","11:03:32",52591.000,"cc",28296.522,6.00,6,0.100,43164.000,0.200,6245.000,0.300,1396.000,0.500,1338.000,1.000,448.000,5.000,0
"03/06/08","11:03:38",52309.000,"cc",28311.481,6.00,6,0.100,43096.000,0.200,6149.000,0.300,1416.000,0.500,1280.000,1.000,368.000,5.000,0
"03/06/08","11:03:44",52272.000,"cc",28330.357,6.00,6,0.100,42829.000,0.200,6140.000,0.300,1507.000,0.500,1378.000,1.000,418.000,5.000,0
"03/06/08","11:03:50",52809.000,"cc",28368.336,6.00,6,0.100,43441.000,0.200,6191.000,0.300,1472.000,0.500,1324.000,1.000,381.000,5.000,0
"03/06/08","11:03:56",52724.000,"cc",28331.137,6.00,6,0.100,43409.000,0.200,6015.000,0.300,1502.000,0.500,1387.000,1.000,411.000,5.000,0
"03/06/08","11:04:02",52242.000,"cc",28265.768,6.00,6,0.100,42993.000,0.200,5930.000,0.300,1525.000,0.500,1380.000,1.000,414.000,5.000,0
"03/06/08","11:04:08",53009.000,"cc",28280.316,6.00,6,0.100,43335.000,0.200,6212.000,0.300,1543.000,0.500,1480.000,1.000,439.000,5.000,0
"03/06/08","11:04:14",52531.000,"cc",28396.082,6.00,6,0.100,43131.000,0.200,6063.000,0.300,1566.000,0.500,1351.000,1.000,420.000,5.000,0
"03/06/08","11:04:20",52134.000,"cc",28344.361,6.00,6,0.100,42868.000,0.200,6038.000,0.300,1421.000,0.500,1371.000,1.000,436.000,5.000,0
"03/06/08","11:04:26",52498.000,"cc",28323.734,6.00,6,0.100,43052.000,0.200,6123.000,0.300,1504.000,0.500,1405.000,1.000,414.000,5.000,0
"03/06/08","11:04:32",52613.000,"cc",28310.926,6.00,6,0.100,43290.000,0.200,6074.000,0.300,1455.000,0.500,1365.000,1.000,429.000,5.000,0
"03/06/08","11:04:38",52425.000,"cc",28321.588,6.00,6,0.100,43027.000,0.200,6049.000,0.300,1536.000,0.500,1414.000,1.000,399.000,5.000,0
"03/06/08","11:04:44",52491.000,"cc",28305.928,6.00,6,0.100,43091.000,0.200,6018.000,0.300,1447.000,0.500,1472.000,1.000,463.000,5.000,0
"03/06/08","11:04:50",52464.000,"cc",28278.383,6.00,6,0.100,43063.000,0.200,6162.000,0.300,1484.000,0.500,1374.000,1.000,381.000,5.000,0
"03/06/08","11:04:56",52248.000,"cc",28329.518,6.00,6,0.100,43031.000,0.200,5990.000,0.300,1459.000,0.500,1400.000,1.000,368.000,5.000,0
"03/06/08","11:05:02",52547.000,"cc",28313.092,6.00,6,0.100,43274.000,0.200,6109.000,0.300,1424.000,0.500,1338.000,1.000,402.000,5.000,0
"03/06/08","11:05:08",52571.000,"cc",28315.145,6.00,6,0.100,43404.000,0.200,5988.000,0.300,1386.000,0.500,1424.000,1.000,369.000,5.000,0
"03/06/08","11:05:14",52252.000,"cc",28353.455,6.00,6,0.100,43053.000,0.200,6053.000,0.300,1462.000,0.500,1334.000,1.000,350.000,5.000,0
"03/06/08","11:05:20",53006.000,"cc",28307.715,6.00,6,0.100,43505.000,0.200,6159.000,0.300,1492.000,0.500,1425.000,1.000,425.000,5.000,0
"03/06/08","11:05:26",52600.000,"cc",28361.510,6.00,6,0.100,43223.000,0.200,6155.000,0.300,1459.000,0.500,1342.000,1.000,421.000,5.000,0
"03/06/08","11:05:32",52690.000,"cc",28256.297,6.00,6,0.100,43285.000,0.200,6063.000,0.300,1453.000,0.500,1448.000,1.000,441.000,5.000,0
"03/06/08","11:05:38",52632.000,"cc",28354.420,6.00,6,0.100,43482.000,0.200,5994.000,0.300,1455.000,0.500,1328.000,1.000,373.000,5.000,0
"03/06/08","11:05:44",52405.000,"cc",28241.387,6.00,6,0.100,43159.000,0.200,6111.000,0.300,1402.000,0.500,1374.000,1.000,359.000,5.000,0
"03/06/08","11:05:50",52508.000,"cc",28262.660,6.00,6,0.100,43326.000,0.200,6058.000,0.300,1435.000,0.500,1334.000,1.000,355.000,5.000,0
"03/06/08","11:05:56",52101.000,"cc",28456.055,6.00,6,0.100,43075.000,0.200,5973.000,0.300,1341.000,0.500,1346.000,1.000,366.000,5.000,0
"03/06/08","11:06:02",52762.000,"cc",28294.281,6.00,6,0.100,43390.000,0.200,6087.000,0.300,1486.000,0.500,1365.000,1.000,434.000,5.000,0
"03/06/08","11:06:08",52527.000,"cc",28313.285,6.00,6,0.100,43039.000,0.200,6214.000,0.300,1435.000,0.500,1445.000,1.000,394.000,5.000,0
"03/06/08","11:06:14",52808.000,"cc",28258.037,6.00,6,0.100,43659.000,0.200,5963.000,0.300,1492.000,0.500,1330.000,1.000,364.000,5.000,0
"03/06/08","11:06:20",52303.000,"cc",28335.455,6.00,6,0.100,43303.000,0.200,5946.000,0.300,1421.000,0.500,1286.000,1.000,347.000,5.000,0
"03/06/08","11:06:26",52887.000,"cc",28353.613,6.00,6,0.100,43654.000,0.200,6099.000,0.300,1453.000,0.500,1327.000,1.000,354.000,5.000,0
"03/06/08","11:06:32",52495.000,"cc",28347.537,6.00,6,0.100,43157.000,0.200,6195.000,0.300,1481.000,0.500,1321.000,1.000,341.000,5.000,0
"03/06/08","11:06:38",52256.000,"cc",28278.744,6.00,6,0.100,43209.000,0.200,6089.000,0.300,1398.000,0.500,1236.000,1.000,324.000,5.000,0
"03/06/08","11:06:44",52330.000,"cc",28369.861,6.00,6,0.100,43335.000,0.200,6013.000,0.300,1396.000,0.500,1261.000,1.000,325.000,5.000,0
"03/06/08","11:06:50",52531.000,"cc",28362.969,6.00,6,0.100,43676.000,0.200,6080.000,0.300,1375.000,0.500,1134.000,1.000,266.000,5.000,0
"03/06/08","11:06:56",52576.000,"cc",28246.387,6.00,6,0.100,43459.000,0.200,6142.000,0.300,1396.000,0.500,1238.000,1.000,341.000,5.000,0
"03/06/08","11:07:02",52424.000,"cc",28373.311,6.00,6,0.100,43454.000,0.200,6184.000,0.300,1339.000,0.500,1183.000,1.000,264.000,5.000,0
"03/06/08","11:07:08",52301.000,"cc",28231.820,6.00,6,0.100,43251.000,0.200,6091.000,0.300,1377.000,0.500,1269.000,1.000,313.000,5.000,0
"03/06/08","11:07:14",52289.000,"cc",28276.559,6.00,6,0.100,43424.000,0.200,6038.000,0.300,1334.000,0.500,1199.000,1.000,294.000,5.000,0
"03/06/08","11:07:20",52765.000,"cc",28342.555,6.00,6,0.100,43707.000,0.200,5967.000,0.300,1476.000,0.500,1266.000,1.000,349.000,5.000,0
"03/06/08","11:07:26",53072.000,"cc",28427.070,6.00,6,0.100,43808.000,0.200,6246.000,0.300,1396.000,0.500,1305.000,1.000,317.000,5.000,0
"03/06/08","11:07:32",52399.000,"cc",28272.164,6.00,6,0.100,43417.000,0.200,6004.000,0.300,1397.000,0.500,1285.000,1.000,296.000,5.000,0
"03/06/08","11:07:38",52227.000,"cc",28314.889,6.00,6,0.100,43336.000,0.200,6036.000,0.300,1368.000,0.500,1227.000,1.000,260.000,5.000,0
"03/06/08","11:07:44",52530.000,"cc",28259.783,6.00,6,0.100,43408.000,0.200,6108.000,0.300,1435.000,0.500,1277.000,1.000,302.000,5.000,0
"03/06/08","11:07:50",53247.000,"cc",28294.477,6.00,6,0.100,44031.000,0.200,6175.000,0.300,1463.000,0.500,1287.000,1.000,291.000,5.000,0
"03/06/08","11:07:56",52056.000,"cc",28314.598,6.00,6,0.100,43242.000,0.200,6010.000,0.300,1398.000,0.500,1153.000,1.000,253.000,5.000,0
"03/06/08","11:08:02",52650.000,"cc",28325.359,6.00,6,0.100,43450.000,0.200,6320.000,0.300,1387.000,0.500,1190.000,1.000,303.000,5.000,0
"03/06/08","11:08:08",52367.000,"cc",28316.441,6.00,6,0.100,43458.000,0.200,6137.000,0.300,1371.000,0.500,1131.000,1.000,270.000,5.000,0
"03/06/08","11:08:14",52568.000,"cc",28352.320,6.00,6,0.100,43561.000,0.200,6168.000,0.300,1353.000,0.500,1209.000,1.000,277.000,5.000,0
"03/06/08","11:08:20",52587.000,"cc",28287.406,6.00,6,0.100,43585.000,0.200,6164.000,0.300,1405.000,0.500,1177.000,1.000,256.000,5.000,0
"03/06/08","11:08:26",52580.000,"cc",28334.332,6.00,6,0.100,43705.000,0.200,6067.000,0.300,1390.000,0.500,1135.000,1.000,283.000,5.000,0
"03/06/08","11:08:32",52508.000,"cc",28307.420,6.00,6,0.100,43666.000,0.200,6116.000,0.300,1336.000,0.500,1167.000,1.000,223.000,5.000,0
"03/06/08","11:08:38",52529.000,"cc",28339.492,6.00,6,0.100,43611.000,0.200,6104.000,0.300,1449.000,0.500,1099.000,1.000,266.000,5.000,0
"03/06/08","11:08:44",52266.000,"cc",28285.449,6.00,6,0.100,43363.000,0.200,6093.000,0.300,1352.000,0.500,1161.000,1.000,297.000,5.000,0
"03/06/08","11:08:50",52471.000,"cc",28262.783,6.00,6,0.100,43577.000,0.200,6128.000,0.300,1282.000,0.500,1241.000,1.000,243.000,5.000,0
"03/06/08","11:08:56",52631.000,"cc",28365.445,6.00,6,0.100,43805.000,0.200,5932.000,0.300,1398.000,0.500,1225.000,1.000,271.000,5.000,0
"03/06/08","11:09:02",52249.000,"cc",28330.916,6.00,6,0.100,43515.000,0.200,6041.000,0.300,1309.000,0.500,1125.000,1.000,259.000,5.000,0
"03/06/08","11:09:08",52124.000,"cc",28262.738,6.00,6,0.100,43175.000,0.200,6178.000,0.300,1324.000,0.500,1158.000,1.000,289.000,5.000,0
"03/06/08","11:09:14",52366.000,"cc",28382.217,6.00,6,0.100,43669.000,0.200,5979.000,0.300,1327.000,0.500,1120.000,1.000,271.000,5.000,0
"03/06/08","11:09:20",52092.000,"cc",28206.869,6.00,6,0.100,43344.000,0.200,5954.000,0.300,1357.000,0.500,1179.000,1.000,258.000,5.000,0
"03/06/08","11:09:26",52740.000,"cc",28291.113,6.00,6,0.100,43921.000,0.200,6104.000,0.300,1353.000,0.500,1121.000,1.000,241.000,5.000,0
"03/06/08","11:09:32",52874.000,"cc",28314.430,6.00,6,0.100,43721.000,0.200,6234.000,0.300,1419.000,0.500,1219.000,1.000,281.000,5.000,0
"03/06/08","11:09:38",52577.000,"cc",28443.164,6.00,6,0.100,43780.000,0.200,6011.000,0.300,1349.000,0.500,1189.000,1.000,248.000,5.000,0
"03/06/08","11:09:44",52050.000,"cc",28290.400,6.00,6,0.100,43213.000,0.200,6001.000,0.300,1406.000,0.500,1190.000,1.000,240.000,5.000,0
"03/06/08","11:09:50",51840.000,"cc",28281.393,6.00,6,0.100,42851.000,0.200,6150.000,0.300,1382.000,0.500,1188.000,1.000,269.000,5.000,0
"03/06/08","11:09:56",51755.000,"cc",28302.523,6.00,6,0.100,42975.000,0.200,6004.000,0.300,1419.000,0.500,1100.000,1.000,257.000,5.000,0
"03/06/08","11:10:02",51864.000,"cc",28374.447,6.00,6,0.100,43168.000,0.200,6001.000,0.300,1323.000,0.500,1134.000,1.000,238.000,5.000,0
"03/06/08","11:10:08",52263.000,"cc",28297.477,6.00,6,0.100,43687.000,0.200,5846.000,0.300,1339.000,0.500,1138.000,1.000,253.000,5.000,0
"03/06/08","11:10:14",52867.000,"cc",28251.531,6.00,6,0.100,44101.000,0.200,6001.000,0.300,1360.000,0.500,1165.000,1.000,240.000,5.000,0
"03/06/08","11:10:20",52609.000,"cc",28354.897,6.00,6,0.100,43815.000,0.200,6052.000,0.300,1426.000,0.500,1072.000,1.000,244.000,5.000,0
"03/06/08","11:10:26",52241.000,"cc",28377.650,6.00,6,0.100,43629.000,0.200,5908.000,0.300,1417.000,0.500,1057.000,1.000,230.000,5.000,0
"03/06/08","11:10:32",51896.000,"cc",28355.934,6.00,6,0.100,43324.000,0.200,5942.000,0.300,1295.000,0.500,1114.000,1.000,221.000,5.000,0
"03/06/08","11:10:38",51936.000,"cc",28322.188,6.00,6,0.100,43143.000,0.200,6054.000,0.300,1369.000,0.500,1148.000,1.000,222.000,5.000,0
"03/06/08","11:10:44",51921.000,"cc",28373.047,6.00,6,0.100,43268.000,0.200,5940.000,0.300,1383.000,0.500,1099.000,1.000,231.000,5.000,0
"03/06/08","11:10:50",51824.000,"cc",28241.553,6.00,6,0.100,43181.000,0.200,5894.000,0.300,1394.000,0.500,1151.000,1.000,204.000,5.000,0
"03/06/08","11:10:56",52180.000,"cc",28357.889,6.00,6,0.100,43448.000,0.200,6105.000,0.300,1344.000,0.500,1042.000,1.000,241.000,5.000,0
"03/06/08","11:11:02",52208.000,"cc",28269.150,6.00,6,0.100,43679.000,0.200,5892.000,0.300,1357.000,0.500,1075.000,1.000,205.000,5.000,0
"03/06/08","11:11:08",52127.000,"cc",28305.592,6.00,6,0.100,43541.000,0.200,5846.000,0.300,1376.000,0.500,1115.000,1.000,249.000,5.000,0
"03/06/08","11:11:14",51385.000,"cc",28294.662,6.00,6,0.100,43071.000,0.200,5730.000,0.300,1370.000,0.500,1018.000,1.000,196.000,5.000,0
"03/06/08","11:11:20",52226.000,"cc",28338.789,6.00,6,0.100,43680.000,0.200,5893.000,0.300,1327.000,0.500,1127.000,1.000,199.000,5.000,0
"03/06/08","11:11:26",51954.000,"cc",28247.264,6.00,6,0.100,43401.000,0.200,5933.000,0.300,1360.000,0.500,1053.000,1.000,207.000,5.000,0
"03/06/08","11:11:32",51831.000,"cc",28280.877,6.00,6,0.100,43210.000,0.200,5896.000,0.300,1374.000,0.500,1129.000,1.000,222.000,5.000,0
"03/06/08","11:11:38",52150.000,"cc",28229.908,6.00,6,0.100,43855.000,0.200,5764.000,0.300,1339.000,0.500,1035.000,1.000,157.000,5.000,0
"03/06/08","11:11:44",51729.000,"cc",28243.731,6.00,6,0.100,43271.000,0.200,5890.000,0.300,1316.000,0.500,1050.000,1.000,202.000,5.000,0
"03/06/08","11:11:50",51970.000,"cc",28247.029,6.00,6,0.100,43664.000,0.200,5777.000,0.300,1309.000,0.500,1054.000,1.000,166.000,5.000,0
"03/06/08","11:11:56",52535.000,"cc",28375.045,6.00,6,0.100,43980.000,0.200,5958.000,0.300,1335.000,0.500,1063.000,1.000,199.000,5.000,0
"03/06/08","11:12:02",51663.000,"cc",28201.195,6.00,6,0.100,43370.000,0.200,5858.000,0.300,1276.000,0.500,996.000,1.000,163.000,5.000,0
"03/06/08","11:12:08",51866.000,"cc",28239.881,6.00,6,0.100,43453.000,0.200,5889.000,0.300,1387.000,0.500,961.000,1.000,176.000,5.000,0
"03/06/08","11:12:14",51538.000,"cc",28246.264,6.00,6,0.100,43418.000,0.200,5753.000,0.300,1265.000,0.500,949.000,1.000,153.000,5.000,0
"03/06/08","11:12:20",51744.000,"cc",28244.586,6.00,6,0.100,43530.000,0.200,5876.000,0.300,1219.000,0.500,960.000,1.000,159.000,5.000,0
"03/06/08","11:12:26",51427.000,"cc",28200.242,6.00,6,0.100,43373.000,0.200,5786.000,0.300,1211.000,0.500,922.000,1.000,135.000,5.000,0
"03/06/08","11:12:32",51768.000,"cc",28303.734,6.00,6,0.100,43651.000,0.200,5771.000,0.300,1287.000,0.500,937.000,1.000,122.000,5.000,0
"03/06/08","11:12:38",51741.000,"cc",28237.240,6.00,6,0.100,43617.000,0.200,5768.000,0.300,1227.000,0.500,982.000,1.000,147.000,5.000,0
"03/06/08","11:12:44",52842.000,"cc",28369.225,6.00,6,0.100,43930.000,0.200,6113.000,0.300,1460.000,0.500,1157.000,1.000,182.000,5.000,0
"03/06/08","11:12:50",52287.000,"cc",28422.801,6.00,6,0.100,43832.000,0.200,5844.000,0.300,1381.000,0.500,1084.000,1.000,146.000,5.000,0
"03/06/08","11:12:56",52617.000,"cc",28415.367,6.00,6,0.100,43818.000,0.200,6099.000,0.300,1485.000,0.500,1044.000,1.000,171.000,5.000,0
"03/06/08","11:13:02",52337.000,"cc",28290.645,6.00,6,0.100,43851.000,0.200,6002.000,0.300,1353.000,0.500,999.000,1.000,132.000,5.000,0
"03/06/08","11:13:08",52544.000,"cc",28266.822,6.00,6,0.100,44053.000,0.200,5966.000,0.300,1418.000,0.500,1009.000,1.000,98.000,5.000,0
"03/06/08","11:13:14",52072.000,"cc",28271.107,6.00,6,0.100,43992.000,0.200,5896.000,0.300,1296.000,0.500,787.000,1.000,101.000,5.000,0
"03/06/08","11:13:20",52052.000,"cc",28305.924,6.00,6,0.100,43851.000,0.200,5974.000,0.300,1322.000,0.500,827.000,1.000,78.000,5.000,0
"03/06/08","11:13:26",52043.000,"cc",28270.561,6.00,6,0.100,44068.000,0.200,5873.000,0.300,1262.000,0.500,768.000,1.000,72.000,5.000,0
"03/06/08","11:13:32",52093.000,"cc",28318.807,6.00,6,0.100,43920.000,0.200,5952.000,0.300,1330.000,0.500,796.000,1.000,94.000,5.000,1.000
"03/06/08","11:13:38",52440.000,"cc",28322.373,6.00,6,0.100,44297.000,0.200,5952.000,0.300,1275.000,0.500,828.000,1.000,88.000,5.000,0
"03/06/08","11:13:44",51852.000,"cc",28349.139,6.00,6,0.100,43669.000,0.200,5946.000,0.300,1273.000,0.500,874.000,1.000,90.000,5.000,0
"03/06/08","11:13:50",51900.000,"cc",28368.242,6.00,6,0.100,43888.000,0.200,5844.000,0.300,1259.000,0.500,839.000,1.000,70.000,5.000,0
"03/06/08","11:13:56",51617.000,"cc",28368.709,6.00,6,0.100,43703.000,0.200,5742.000,0.300,1263.000,0.500,825.000,1.000,84.000,5.000,0
"03/06/08","11:14:02",51926.000,"cc",28294.770,6.00,6,0.100,43870.000,0.200,5816.000,0.300,1272.000,0.500,866.000,1.000,102.000,5.000,0
"03/06/08","11:14:08",51691.000,"cc",28389.785,6.00,6,0.100,43458.000,0.200,5912.000,0.300,1258.000,0.500,952.000,1.000,111.000,5.000,0
"03/06/08","11:14:14",51632.000,"cc",28296.998,6.00,6,0.100,43551.000,0.200,5795.000,0.300,1235.000,0.500,937.000,1.000,114.000,5.000,0
"03/06/08","11:14:20",51744.000,"cc",28304.684,6.00,6,0.100,43659.000,0.200,5858.000,0.300,1286.000,0.500,848.000,1.000,93.000,5.000,0
"03/06/08","11:14:26",51573.000,"cc",28286.482,6.00,6,0.100,43727.000,0.200,5656.000,0.300,1256.000,0.500,844.000,1.000,90.000,5.000,0
"03/06/08","11:14:32",51803.000,"cc",28371.684,6.00,6,0.100,43803.000,0.200,5702.000,0.300,1289.000,0.500,905.000,1.000,104.000,5.000,0
"03/06/08","11:14:38",51730.000,"cc",28364.102,6.00,6,0.100,43658.000,0.200,5833.000,0.300,1259.000,0.500,889.000,1.000,91.000,5.000,0
"03/06/08","11:14:44",51554.000,"cc",28226.207,6.00,6,0.100,43456.000,0.200,5756.000,0.300,1324.000,0.500,919.000,1.000,99.000,5.000,0
"03/06/08","11:14:50",52389.000,"cc",28298.690,6.00,6,0.100,44274.000,0.200,5889.000,0.300,1337.000,0.500,821.000,1.000,68.000,5.000,0
"03/06/08","11:14:56",51876.000,"cc",28324.990,6.00,6,0.100,43776.000,0.200,5832.000,0.300,1219.000,0.500,945.000,1.000,104.000,5.000,0
"03/06/08","11:15:02",51724.000,"cc",28337.244,6.00,6,0.100,43462.000,0.200,5859.000,0.300,1313.000,0.500,973.000,1.000,117.000,5.000,0
"03/06/08","11:15:08",51629.000,"cc",28313.793,6.00,6,0.100,43539.000,0.200,5704.000,0.300,1335.000,0.500,947.000,1.000,104.000,5.000,0
"03/06/08","11:15:14",51997.000,"cc",28261.420,6.00,6,0.100,44038.000,0.200,5731.000,0.300,1287.000,0.500,845.000,1.000,96.000,5.000,0
"03/06/08","11:15:20",51830.000,"cc",28338.074,6.00,6,0.100,43631.000,0.200,5803.000,0.300,1279.000,0.500,998.000,1.000,119.000,5.000,0
"03/06/08","11:15:26",51738.000,"cc",28341.680,6.00,6,0.100,43526.000,0.200,5712.000,0.300,1395.000,0.500,975.000,1.000,130.000,5.000,0
"03/06/08","11:15:32",52235.000,"cc",28294.453,6.00,6,0.100,43990.000,0.200,5797.000,0.300,1317.000,0.500,1013.000,1.000,118.000,5.000,0
"03/06/08","11:15:38",51715.000,"cc",28262.525,6.00,6,0.100,43570.000,0.200,5890.000,0.300,1250.000,0.500,904.000,1.000,101.000,5.000,0
"03/06/08","11:15:44",52112.000,"cc",28349.176,6.00,6,0.100,43810.000,0.200,5961.000,0.300,1300.000,0.500,933.000,1.000,108.000,5.000,0
"03/06/08","11:15:50",51895.000,"cc",28329.066,6.00,6,0.100,43547.000,0.200,5873.000,0.300,1318.000,0.500,1011.000,1.000,146.000,5.000,0
"03/06/08","11:15:56",52072.000,"cc",28310.660,6.00,6,0.100,43883.000,0.200,5785.000,0.300,1314.000,0.500,964.000,1.000,126.000,5.000,0
"03/06/08","11:16:02",51735.000,"cc",28270.889,6.00,6,0.100,43589.000,0.200,5874.000,0.300,1316.000,0.500,862.000,1.000,94.000,5.000,0
"03/06/08","11:16:08",51637.000,"cc",28346.318,6.00,6,0.100,43600.000,0.200,5675.000,0.300,1279.000,0.500,963.000,1.000,120.000,5.000,0
"03/06/08","11:16:14",51522.000,"cc",28303.736,6.00,6,0.100,43323.000,0.200,5729.000,0.300,1372.000,0.500,984.000,1.000,114.000,5.000,0
"03/06/08","11:16:20",52425.000,"cc",28281.049,6.00,6,0.100,44052.000,0.200,5885.000,0.300,1323.000,0.500,1026.000,1.000,139.000,5.000,0
"03/06/08","11:16:26",51369.000,"cc",28225.006,6.00,6,0.100,43551.000,0.200,5584.000,0.300,1202.000,0.500,897.000,1.000,135.000,5.000,0